Theta_e
302 302 302 302 303 303 303 303 304 304 303 300 298 299 297 297 296 304 306 308 303 297 289 290 291 292 293 294 293 293 293 292 293 291 292 292 291 292 292 291 289 290 289 289 291 291 288 290 291 292 294 295 297 298 299 299 299 301 297 297 301 306 292 288 289 292 293 294 295 295 296 296 295 297 296 294 293 293 293 291 292 289 288 287 287 284 289
301 301 302 302 303 303 303 303 304 304 304 301 300 296 295 296 299 302 306 306 304 297 286 288 287 291 293 292 292 293 293 292 292 291 291 290 291 290 290 291 291 291 290 291 291 293 286 290 292 292 293 295 297 297 301 302 299 297 297 293 300 290 292 290 286 286 289 292 294 294 295 297 293 293 295 294 294 292 292 293 293 288 290 290 287 282 289
301 301 302 302 303 303 303 303 304 304 304 304 300 295 296 297 298 300 303 304 305 295 293 292 286 290 289 289 290 290 291 292 292 292 291 292 291 290 291 291 292 291 291 290 291 292 290 290 292 292 292 293 295 298 297 302 302 305 305 305 301 293 289 289 283 280 279 278 280 284 288 290 291 292 293 294 293 292 292 288 290 286 289 289 288 287 291
301 301 302 302 303 303 303 304 304 304 304 304 300 295 296 296 290 293 300 298 299 296 294 294 293 290 289 286 288 289 289 291 291 292 292 292 292 291 291 290 292 290 290 292 290 288 291 290 289 289 290 291 294 295 295 299 301 306 305 302 300 291 292 290 288 287 286 287 288 289 288 292 291 291 291 291 291 292 289 291 289 287 288 288 292 293 294
301 301 302 302 303 303 303 304 304 303 303 303 299 295 297 296 293 288 290 295 295 294 293 293 292 290 291 286 288 287 288 288 291 292 291 293 291 292 289 289 290 288 290 288 288 286 288 289 289 287 287 289 291 293 295 298 299 305 303 303 297 294 288 289 290 289 290 289 289 291 290 289 288 288 289 290 291 292 290 288 288 294 290 286 294 293 296
301 301 302 302 302 303 303 304 304 303 303 303 301 297 295 292 291 293 297 292 288 290 291 292 291 290 291 288 289 287 287 288 286 291 292 292 293 289 289 290 288 287 287 288 286 286 287 287 285 288 287 288 292 294 297 294 296 300 299 301 300 296 289 290 291 289 290 290 289 291 290 289 288 288 288 288 289 292 291 289 289 289 289 288 290 292 295
301 301 302 302 303 303 303 304 304 303 302 303 299 296 293 294 293 294 294 291 288 290 290 291 292 291 290 289 289 288 287 286 288 288 291 291 291 290 285 288 288 288 288 288 286 286 285 284 286 288 287 286 289 291 294 296 294 295 300 300 298 296 289 287 292 289 290 290 290 290 289 288 288 287 288 289 289 289 290 289 290 290 290 289 290 293 295
301 301 302 302 302 303 304 304 304 303 302 301 298 296 296 293 293 293 292 293 291 291 290 289 290 289 288 286 287 287 287 287 289 289 289 286 288 290 289 288 289 288 287 288 287 286 288 286 284 288 286 289 290 289 291 292 294 293 294 298 298 295 289 291 291 288 290 290 290 289 289 287 286 287 289 290 290 290 291 291 290 291 292 293 294 293 289
301 301 302 302 302 303 303 304 304 303 301 298 296 296 296 296 297 296 294 291 290 291 288 289 290 287 287 287 287 288 287 288 287 289 290 289 288 289 288 288 289 287 287 289 288 289 290 289 289 291 289 286 292 289 291 292 290 291 294 296 297 297 289 293 291 287 287 290 290 289 289 288 287 286 287 288 288 287 288 288 290 289 290 293 293 291 287
301 301 301 302 302 303 303 304 305 303 301 298 294 297 296 297 296 294 293 288 287 287 285 285 287 284 286 287 287 288 288 288 287 286 287 289 291 292 290 290 289 288 288 288 289 290 291 290 291 291 292 292 291 291 291 292 291 290 290 293 293 294 293 289 289 286 286 289 289 289 289 287 285 284 285 287 289 290 292 292 292 291 291 291 289 292 292
300 301 301 302 302 303 304 304 304 304 302 296 296 297 297 299 298 295 291 289 285 285 287 286 288 287 288 287 287 287 288 288 288 286 286 290 291 290 292 291 288 287 287 291 292 292 292 293 292 292 290 290 290 290 290 290 290 290 291 293 293 293 294 289 290 286 286 286 286 289 286 280 281 287 290 288 287 288 287 287 289 291 293 292 295 293 292
300 301 301 301 302 303 303 304 304 305 303 299 296 296 298 296 294 291 287 287 284 284 287 287 287 287 288 286 287 288 288 288 289 289 289 290 291 291 291 289 289 286 292 294 293 293 292 291 291 290 290 289 289 289 292 292 292 293 292 291 293 292 291 289 289 287 285 287 286 284 279 280 286 291 291 291 291 290 286 290 291 291 293 294 292 292 292
300 300 300 301 302 303 303 304 304 305 304 301 298 297 298 297 297 293 289 289 285 287 287 286 286 286 286 288 287 289 288 287 288 289 289 290 292 292 292 292 290 291 293 292 292 293 290 290 290 290 290 290 291 292 293 293 292 293 294 292 292 289 289 288 287 288 287 285 284 278 278 285 289 291 290 291 293 290 290 288 290 291 292 293 290 291 291
300 300 300 301 302 302 303 304 304 305 304 301 298 298 297 296 297 292 288 286 284 286 285 286 286 287 288 287 286 287 287 289 288 288 290 290 290 291 293 292 293 294 292 293 292 292 289 288 286 287 287 288 290 288 291 292 292 291 289 291 293 293 292 291 287 288 282 283 283 282 285 285 286 285 286 286 283 285 284 283 286 291 293 292 289 289 289
299 300 300 301 301 302 303 304 304 305 304 302 299 296 297 297 297 296 290 291 285 285 284 283 285 287 287 286 285 288 287 286 289 288 287 287 288 292 293 293 294 292 293 293 290 290 287 287 284 283 284 283 280 283 289 286 290 292 289 290 292 292 290 291 288 284 286 284 281 282 281 278 281 286 290 291 290 289 290 287 286 291 293 293 290 288 289
299 299 300 301 301 302 303 304 304 304 304 303 298 298 298 298 295 293 293 289 287 283 285 288 290 289 287 286 285 286 285 284 285 285 288 288 287 290 291 292 293 294 292 290 290 289 286 285 278 279 279 280 278 281 283 285 284 291 291 288 289 288 288 289 289 285 285 283 280 277 277 279 285 285 288 290 290 288 288 286 283 288 292 293 291 289 290
299 299 300 301 301 302 303 303 304 305 305 303 299 296 299 297 295 295 292 289 290 284 286 285 289 288 287 286 286 286 287 285 286 285 283 286 287 286 289 292 294 294 291 293 290 288 286 283 284 283 281 282 280 282 282 282 281 283 287 288 287 285 285 287 285 282 283 282 280 278 281 280 285 287 288 290 291 290 287 281 280 286 290 293 292 290 290
299 299 300 300 301 302 302 303 304 305 304 304 299 297 299 298 295 295 292 289 286 285 289 288 289 289 287 288 287 286 287 287 286 285 285 285 283 286 288 289 289 291 292 290 287 284 281 281 282 281 281 285 283 284 278 279 280 278 280 282 282 281 283 284 281 282 282 281 280 281 282 287 288 287 289 290 290 289 282 278 283 287 290 293 293 292 292
299 299 300 300 301 301 302 303 304 304 305 304 301 297 299 298 295 295 292 289 288 285 289 286 288 290 289 290 289 288 287 287 287 284 283 285 286 287 287 287 288 287 289 286 287 283 282 281 283 284 282 282 284 279 283 280 278 282 282 281 281 281 281 281 283 281 280 281 281 280 282 286 287 289 290 291 288 282 280 285 289 289 292 293 293 291 291
299 299 300 300 300 301 302 303 304 305 305 305 301 298 299 298 297 296 298 289 287 289 289 290 290 290 289 291 289 289 287 288 286 286 284 283 289 287 288 285 288 289 288 289 284 283 283 281 282 284 282 282 283 284 282 281 284 282 281 282 281 279 280 279 279 280 281 281 280 278 275 285 289 288 290 291 285 284 288 288 291 294 293 292 291 291 289
299 299 300 300 301 302 302 303 304 304 305 305 300 298 301 300 301 297 296 295 291 288 289 290 288 291 290 292 294 292 292 288 289 287 287 288 288 287 282 281 286 286 284 285 283 282 282 282 284 282 284 284 283 284 280 280 283 286 285 284 283 285 281 280 281 283 280 279 277 277 283 285 289 287 283 286 288 290 291 291 287 292 293 292 291 290 290
299 299 299 300 301 302 302 303 304 304 305 305 301 298 297 300 299 300 296 297 291 289 293 291 290 293 294 295 296 296 294 293 295 294 291 288 289 288 286 288 287 288 288 289 286 284 286 285 285 283 283 284 287 282 281 280 279 284 288 287 280 287 284 284 280 283 283 281 282 286 288 290 291 290 289 290 292 293 293 293 291 290 291 293 290 289 289
299 299 299 300 301 302 302 303 304 304 304 305 301 298 298 299 300 299 297 294 293 294 294 292 293 293 296 296 294 293 293 293 295 295 295 292 288 288 289 289 289 289 290 289 287 287 287 287 282 286 283 284 283 283 284 284 281 284 282 286 287 288 289 289 288 284 288 288 288 289 289 289 290 291 292 291 292 293 293 292 290 292 292 292 289 289 289
299 299 299 300 301 302 302 303 304 304 304 304 300 299 299 298 297 298 296 293 291 289 291 293 293 289 290 292 295 294 295 295 296 295 295 298 288 288 289 289 289 291 291 291 289 290 287 286 285 287 282 283 285 282 280 280 280 284 284 284 287 288 288 288 285 286 284 280 289 287 287 289 290 291 292 293 293 292 293 292 292 292 292 292 292 291 290
299 299 299 300 301 301 302 303 304 304 304 303 300 297 299 298 297 296 297 289 288 287 284 287 288 293 294 293 293 293 293 293 295 296 294 296 297 292 289 291 292 291 290 291 289 290 286 286 285 286 281 284 286 280 283 283 281 286 282 283 285 285 290 287 285 286 284 283 287 288 290 291 292 292 291 291 292 292 293 293 294 293 293 293 293 292 291
299 299 300 300 300 301 302 303 304 303 303 301 298 298 298 297 296 296 296 293 291 287 286 283 290 297 292 295 294 293 293 294 293 293 293 292 290 297 294 292 291 291 290 288 291 288 285 284 283 285 285 283 289 284 283 285 285 286 285 283 286 286 289 283 285 285 285 287 288 289 291 291 291 292 293 293 293 293 293 294 294 294 293 293 294 294 293
299 299 300 300 301 302 303 303 304 303 303 300 296 296 297 296 297 299 299 295 292 286 287 286 288 291 293 293 294 294 295 293 294 294 293 291 291 293 294 293 292 290 292 289 286 284 284 284 286 284 286 284 287 285 287 286 287 285 284 287 288 288 285 286 286 283 282 284 287 289 285 284 289 291 292 293 294 294 293 294 294 294 293 293 293 293 294
299 299 300 301 301 302 303 304 304 303 303 299 296 296 296 297 297 298 296 298 298 288 287 285 289 292 293 293 293 292 294 294 293 294 292 292 292 293 292 291 291 292 288 292 289 287 286 285 283 283 284 286 286 284 285 285 287 287 286 286 286 287 287 287 284 283 282 288 289 289 291 290 291 291 292 293 294 295 294 293 293 294 294 294 293 292 293
299 300 300 301 302 303 303 304 303 303 302 297 296 298 298 297 298 300 299 295 294 290 288 290 293 292 288 291 295 294 294 294 294 294 294 292 292 292 291 291 290 288 288 286 284 285 284 283 284 285 286 286 288 283 286 281 281 281 285 287 287 288 288 289 289 290 289 291 291 291 291 290 291 291 292 293 294 295 293 293 294 294 294 294 294 294 293
299 300 301 302 302 303 304 304 303 303 300 297 298 292 290 297 298 299 302 300 296 295 288 285 284 286 292 291 294 293 293 294 294 295 294 293 292 292 290 292 291 290 289 286 287 284 283 284 283 286 288 290 286 283 282 282 283 284 288 287 288 289 288 289 289 291 289 291 291 291 293 292 293 293 293 293 293 294 294 294 294 293 293 294 294 293 293
300 301 301 302 303 304 304 304 304 300 297 297 296 287 285 284 295 298 301 299 295 296 285 287 286 287 289 293 291 292 292 293 292 292 292 291 290 291 290 293 291 291 289 288 287 283 284 284 284 287 287 288 285 285 284 283 281 284 286 287 287 288 288 289 289 291 292 291 292 292 292 292 292 291 291 291 291 292 293 293 293 294 293 293 293 293 292
300 301 301 302 303 304 304 304 305 300 296 298 296 294 292 294 296 297 302 299 299 297 289 286 284 285 283 288 295 292 292 290 289 292 293 293 295 291 292 291 289 292 289 285 284 286 284 282 284 286 287 286 286 283 285 284 282 283 287 287 288 288 289 290 290 290 291 293 294 292 292 291 293 292 291 293 291 291 292 292 291 293 292 292 291 291 291
300 301 302 302 303 303 304 304 303 300 298 297 299 301 300 300 301 302 300 300 297 288 289 286 282 283 283 287 292 294 292 295 292 291 291 292 291 291 291 291 291 291 291 290 284 283 285 283 283 286 285 286 284 282 284 282 284 286 286 287 287 288 289 289 289 290 291 290 291 290 289 291 293 293 291 291 291 291 291 291 289 289 291 291 292 291 290
300 301 302 302 303 304 304 303 302 300 299 297 295 297 300 301 302 301 298 296 292 287 287 285 281 283 284 289 288 291 292 291 287 289 286 291 287 291 287 291 291 286 287 286 284 286 286 286 284 283 287 284 282 284 279 284 285 286 287 287 288 288 289 290 290 290 290 290 289 290 292 293 291 291 291 291 290 289 290 289 290 291 291 292 292 291 290
300 301 302 303 303 303 302 301 298 298 296 294 295 297 297 303 302 300 298 299 290 285 283 282 283 282 282 284 282 288 291 292 287 287 286 288 290 289 290 287 287 286 284 289 284 281 283 284 286 284 280 283 282 277 280 285 286 287 287 288 288 289 290 289 289 289 289 289 291 290 291 291 292 290 290 290 289 289 289 289 289 290 291 291 291 290 289
300 301 302 303 302 299 298 300 297 295 294 293 295 299 302 303 300 298 296 296 297 285 281 281 282 282 282 279 281 286 292 289 287 287 286 286 290 287 287 286 283 283 285 284 283 285 283 285 285 280 280 280 277 281 284 285 286 287 287 288 288 289 289 289 289 289 288 290 291 292 292 291 291 289 289 289 289 289 289 290 289 289 290 290 292 290 289
301 301 301 299 296 298 291 291 295 295 294 297 298 301 302 303 299 301 297 299 297 297 290 282 284 283 284 282 282 286 289 284 287 286 287 286 284 283 285 285 282 284 285 283 283 283 284 287 283 279 279 279 280 285 286 286 286 287 288 288 288 288 288 288 288 290 290 291 292 290 290 290 289 288 289 289 290 289 289 290 291 290 290 291 291 290 291
301 299 297 297 292 286 286 287 293 298 301 301 302 298 296 295 289 287 288 287 289 294 286 289 284 285 284 287 283 289 289 284 286 285 284 283 283 283 282 283 282 284 279 278 282 285 283 280 278 280 279 285 285 286 287 287 287 287 287 288 289 288 288 289 289 290 289 288 288 289 289 289 289 289 289 290 289 289 290 292 291 290 290 290 290 290 289
297 295 293 289 289 285 286 293 298 300 299 298 297 290 286 284 285 285 284 283 285 286 285 288 284 286 287 286 286 292 287 286 283 285 282 285 283 281 283 280 281 282 277 278 282 287 280 279 276 279 280 284 286 287 286 287 288 289 289 289 288 289 288 288 289 291 290 289 290 291 290 289 289 290 290 290 290 290 290 290 291 290 290 290 289 289 289
296 295 288 286 287 290 295 296 296 298 297 289 285 285 284 284 285 283 282 283 283 283 284 285 286 286 287 288 286 286 290 288 283 282 283 284 288 282 281 282 280 280 272 274 280 285 282 276 274 277 279 284 285 287 288 288 289 289 289 289 288 288 287 288 289 289 290 290 290 291 291 291 291 291 292 291 291 290 291 291 291 290 289 290 289 289 290
291 290 289 288 293 292 295 296 294 292 287 284 284 282 282 282 283 282 281 279 279 282 284 286 286 287 287 286 289 285 289 291 287 286 285 283 285 285 281 277 280 277 272 276 280 281 278 276 275 277 280 285 287 287 288 290 290 290 290 290 290 289 289 289 290 290 291 291 291 291 291 290 290 290 291 292 293 292 290 290 291 291 290 290 289 290 291
292 293 293 293 292 293 293 291 286 285 284 283 281 278 278 280 282 282 282 281 280 282 286 287 284 286 286 288 287 289 287 288 286 284 284 281 283 282 277 278 278 276 273 279 280 277 279 274 274 277 283 286 287 286 287 289 289 290 290 290 290 290 291 291 291 290 289 290 291 291 291 291 291 290 290 291 292 292 292 292 292 291 291 292 291 290 290
297 295 294 291 288 286 285 284 284 283 278 278 275 276 278 278 280 280 281 281 282 285 285 289 287 289 290 290 289 289 288 289 288 285 283 281 283 281 279 276 275 273 277 282 279 275 273 271 272 281 286 286 287 288 289 289 289 288 290 289 290 289 290 291 291 291 290 289 290 291 291 291 291 291 290 290 291 291 291 290 291 292 292 292 292 291 290
295 294 289 283 285 284 285 279 284 283 278 275 275 274 275 276 278 279 278 282 285 285 287 288 287 288 284 287 287 286 286 288 286 283 282 280 281 277 275 273 276 280 282 277 276 276 275 274 280 284 286 286 287 287 289 290 290 290 291 291 289 289 291 291 292 292 292 291 291 290 289 290 291 291 290 290 291 292 293 293 292 291 291 290 291 292 291
289 284 280 281 279 281 282 274 279 278 275 276 277 276 276 278 277 276 283 284 288 287 286 287 288 288 285 286 286 285 285 285 285 283 279 280 277 276 276 276 279 276 277 273 272 274 275 277 283 284 285 286 288 289 289 289 289 290 290 290 291 290 291 292 292 291 291 292 291 291 291 291 291 292 292 291 291 290 291 293 293 291 291 291 292 292 290
282 281 277 276 274 277 277 274 274 277 278 279 279 281 282 283 283 285 286 285 286 286 288 287 287 287 284 285 284 284 282 283 283 281 279 278 277 275 279 279 279 274 270 271 271 274 276 281 284 286 287 288 289 288 288 289 288 287 288 290 292 290 290 290 292 291 291 292 292 291 292 292 292 292 293 293 292 292 292 293 292 291 291 291 291 292 292
284 282 279 277 274 277 279 276 276 279 282 283 284 283 286 286 285 286 285 285 288 287 287 286 288 288 286 284 284 284 283 281 281 280 281 278 276 279 280 278 272 269 270 269 269 272 277 283 284 287 288 288 288 288 288 289 288 288 290 290 290 291 290 289 290 290 291 290 290 291 292 292 292 291 290 291 293 293 292 292 292 291 292 292 293 292 291
282 281 281 276 274 277 278 280 282 283 282 284 284 284 285 286 287 287 286 286 287 288 288 288 286 287 285 285 286 281 280 281 280 280 280 279 280 276 272 270 268 269 270 272 275 279 283 285 287 287 288 288 288 290 290 291 290 289 289 290 291 291 291 291 291 291 290 290 291 291 291 291 290 290 290 291 291 292 292 292 292 292 292 292 292 291 291
283 280 279 276 278 277 280 283 284 284 284 285 284 286 287 288 286 286 286 287 288 288 287 289 284 284 281 281 280 281 280 280 277 277 280 277 273 270 270 268 268 272 274 277 281 283 285 287 288 288 289 289 289 289 290 289 290 291 291 291 291 291 290 290 291 291 290 290 290 290 291 291 290 290 290 289 290 292 292 292 292 292 292 292 292 292 292
283 282 281 279 280 281 283 284 285 283 285 285 286 285 286 287 286 287 287 288 286 286 287 286 286 284 280 280 277 277 279 280 279 278 275 272 271 270 270 269 269 273 279 281 282 285 287 287 288 289 290 290 290 291 292 292 288 290 291 291 291 291 291 291 291 292 292 291 291 291 290 290 290 291 291 292 292 291 291 292 292 292 292 292 292 292 292
283 282 281 282 282 281 283 281 282 280 281 285 285 286 286 287 287 287 287 288 288 287 285 283 281 280 279 277 273 273 277 280 279 275 276 275 274 273 273 272 276 278 284 287 287 287 288 288 289 291 289 290 291 290 290 291 291 291 291 290 291 291 290 290 290 291 292 292 290 286 290 292 292 292 291 291 290 291 292 293 292 292 293 293 292 292 292
279 281 283 282 283 284 285 285 285 285 286 286 286 286 287 288 287 288 286 288 288 286 283 281 281 277 274 275 276 279 281 278 274 275 275 277 276 276 273 278 282 284 285 286 287 287 287 288 288 288 291 291 291 291 290 290 290 290 290 291 291 291 292 292 292 291 291 291 291 291 292 292 291 291 290 291 291 292 292 293 292 292 292 293 293 292 292
Wind_Speed
14 14 14 15 16 17 16 16 15 12 13 5 4 4 1 3 3 3 3 4 2 3 4 1 1 1 1 3 2 1 1 1 2 2 3 2 1 1 1 1 1 1 1 1 2 2 1 3 2 1 0 1 3 6 5 2 3 3 2 5 3 1 1 1 2 3 4 2 2 5 1 3 3 3 4 3 2 2 3 1 2 3 3 3 1 3 1
14 14 14 15 16 17 17 16 16 13 9 5 5 2 2 2 3 3 1 0 1 1 1 2 1 2 2 2 2 1 1 1 3 2 2 1 3 1 1 0 2 2 1 1 2 3 1 2 3 2 2 2 2 4 9 5 2 1 5 4 5 1 1 1 1 3 4 1 2 2 2 3 3 2 4 3 3 2 2 4 1 1 5 2 3 5 0
14 13 14 15 16 17 17 18 16 14 11 8 3 1 1 4 2 3 1 3 1 1 2 2 0 1 2 3 4 4 0 0 1 1 3 1 1 1 1 1 3 1 2 1 0 2 4 1 3 1 1 2 3 5 8 8 2 3 3 2 5 2 2 1 1 3 4 2 2 2 1 2 4 1 4 7 7 5 2 3 3 5 2 4 2 2 2
13 14 15 16 17 17 17 16 14 16 14 4 5 2 1 2 3 3 2 4 3 3 1 1 1 1 0 1 2 0 3 1 2 1 0 2 1 2 2 0 1 3 3 3 4 4 3 2 3 4 4 4 2 3 3 3 4 1 8 4 3 3 2 2 4 4 5 2 2 1 2 5 1 7 7 9 5 3 3 2 2 4 4 5 4 2 4
14 14 15 16 17 18 18 16 15 17 10 9 4 1 0 1 3 2 1 1 2 1 2 1 1 1 2 1 1 3 3 3 2 1 1 4 3 2 5 3 1 3 2 2 1 2 1 3 2 4 3 2 2 5 2 3 10 8 1 4 3 3 2 1 4 5 3 1 2 3 4 2 3 5 7 8 10 6 2 2 2 3 6 4 1 3 6
14 14 15 16 17 18 17 15 14 14 7 9 3 1 2 1 1 2 0 2 1 1 1 2 3 2 1 1 1 2 3 4 2 3 2 1 3 0 0 6 5 1 1 1 0 5 2 4 1 4 1 3 5 2 1 4 7 7 3 3 1 2 2 4 3 3 3 3 2 2 7 6 5 8 8 10 10 11 6 5 5 8 2 2 3 2 4
14 14 15 16 17 18 17 17 14 10 6 4 3 1 1 1 2 1 2 1 0 1 1 3 5 5 2 1 2 1 3 3 1 1 3 3 3 4 1 4 6 4 1 1 2 2 1 1 1 1 4 3 4 3 3 2 7 9 3 4 2 1 1 2 2 6 4 4 4 4 7 4 5 10 10 8 9 9 8 7 8 5 4 2 2 5 6
13 14 15 16 18 18 17 16 11 8 3 3 2 1 2 2 2 2 4 5 4 2 2 2 2 3 3 1 2 1 1 3 3 1 1 1 2 1 2 2 4 2 1 0 2 1 3 2 1 1 2 4 1 1 1 5 6 9 5 4 4 3 1 4 2 3 4 2 3 4 5 5 4 8 11 11 7 6 8 6 7 6 4 3 7 6 5
13 14 15 17 18 18 18 16 13 7 1 2 1 1 1 0 0 2 5 4 3 1 2 2 2 2 3 2 0 1 1 0 1 2 1 1 1 1 3 1 0 1 2 1 2 3 1 3 4 5 3 3 1 2 1 2 5 7 5 4 5 2 1 1 1 3 3 1 2 3 5 6 6 10 13 12 11 8 7 3 5 4 4 3 6 5 2
13 14 16 17 18 18 17 16 14 8 1 1 1 2 1 1 1 1 4 4 3 1 1 1 1 1 1 1 1 1 1 2 1 0 0 1 2 1 2 2 0 1 2 1 1 2 4 7 9 8 8 8 5 3 3 2 1 3 3 0 2 2 4 3 3 4 2 3 1 2 4 4 2 5 7 8 4 6 4 4 8 7 7 1 3 0 4
14 14 16 17 18 18 17 17 14 9 3 1 0 1 1 1 2 1 3 4 1 1 1 2 2 1 2 1 1 0 2 3 1 1 1 2 2 1 1 3 1 1 3 1 1 2 7 8 7 4 4 5 5 3 3 3 4 5 3 1 1 1 2 1 2 3 0 1 1 1 0 4 0 3 5 4 3 6 6 4 7 9 6 3 3 4 9
14 14 16 17 18 18 18 17 15 12 6 0 1 1 1 2 3 4 2 3 0 0 1 2 1 1 2 1 1 0 1 2 2 0 2 1 2 1 2 1 1 1 0 1 3 5 1 1 3 3 3 1 3 3 1 5 5 3 5 4 1 2 2 1 1 1 1 1 1 2 5 1 2 3 5 7 2 5 3 2 9 10 9 8 10 10 7
14 15 16 16 17 18 18 17 16 14 8 2 2 1 1 0 1 2 4 4 2 1 1 2 1 1 1 1 2 1 2 3 3 3 2 2 2 2 4 2 3 2 2 7 5 1 3 0 2 0 3 3 2 1 3 4 7 5 2 3 5 2 2 2 0 1 1 1 2 3 2 1 2 2 6 8 2 8 3 3 7 11 8 2 9 9 9
14 15 16 16 17 18 18 17 17 15 12 3 3 2 0 1 1 2 2 4 1 1 1 2 1 1 1 1 0 4 1 1 2 1 3 3 3 4 3 3 2 3 4 1 1 2 2 1 1 1 2 3 1 2 1 2 2 7 8 4 1 3 1 1 1 2 1 1 3 5 4 3 5 3 6 7 4 7 4 2 4 11 6 4 8 10 11
14 15 16 16 17 18 18 18 17 17 15 6 2 1 0 1 2 1 2 4 3 1 1 1 1 1 2 0 1 2 2 3 4 1 1 0 3 4 3 2 3 5 1 2 0 1 0 1 1 0 0 1 2 1 3 2 2 4 6 5 3 4 3 1 1 0 1 3 4 4 2 1 4 2 3 3 4 5 6 3 1 8 7 5 8 10 12
14 15 15 16 17 18 18 18 18 17 16 10 2 1 1 1 2 3 3 4 6 2 1 2 3 4 2 1 1 2 1 1 1 3 3 1 3 5 2 3 4 1 1 3 1 2 0 1 2 1 0 1 1 3 1 4 2 2 5 5 6 6 3 3 2 2 1 2 3 3 2 2 1 9 9 6 4 5 2 2 3 7 7 4 9 10 8
14 15 16 16 17 18 18 17 17 16 15 11 1 0 0 4 3 2 4 4 5 1 1 0 4 3 2 2 1 1 1 1 2 1 1 2 3 5 8 5 2 1 2 2 2 1 1 3 1 2 1 2 1 2 2 2 2 3 11 4 8 9 4 2 4 2 2 3 4 4 4 3 8 11 10 8 6 2 3 3 3 5 7 3 5 8 8
14 15 16 16 17 18 18 18 17 17 15 11 1 0 1 0 3 2 5 5 5 2 0 7 1 2 3 1 0 0 1 1 1 1 1 2 3 3 5 6 5 2 2 1 1 2 2 1 2 2 2 2 1 2 2 2 3 3 4 5 2 3 3 6 5 2 3 5 4 3 2 1 6 9 11 8 1 5 1 3 3 5 2 5 4 4 3
14 14 15 16 17 17 18 18 18 18 17 15 3 2 0 2 1 3 8 4 4 3 3 2 1 3 2 2 4 2 1 1 0 0 2 1 1 1 3 2 1 2 5 2 2 2 1 1 1 1 1 1 1 2 2 2 3 2 3 2 1 4 1 1 1 5 4 2 5 4 2 0 7 11 11 3 2 3 3 3 3 4 4 4 5 7 7
14 14 15 16 16 17 18 18 18 18 17 18 7 2 1 2 2 3 4 7 3 6 1 1 2 3 4 3 4 2 1 1 1 1 2 1 1 2 2 0 1 1 1 0 2 1 1 2 1 1 2 2 2 3 4 2 1 3 1 2 3 3 2 2 4 1 1 2 3 2 4 1 11 18 5 5 3 2 1 2 4 3 5 7 7 8 7
14 14 15 15 16 17 17 18 18 17 17 18 6 0 2 3 3 5 4 8 7 8 2 2 1 3 4 3 4 6 5 4 2 2 1 3 1 1 2 1 3 2 1 2 1 1 0 2 2 2 1 1 1 1 2 2 3 4 3 3 5 3 1 2 3 4 2 5 5 4 2 6 10 9 5 6 3 3 3 0 4 4 6 7 7 8 7
13 14 14 15 16 17 17 17 18 17 18 18 8 2 4 4 3 4 1 5 6 4 4 1 1 2 4 1 3 4 1 3 3 4 1 1 1 2 2 1 1 1 1 2 2 2 1 2 1 2 2 3 1 3 2 1 3 4 3 2 5 9 6 2 5 4 4 3 3 2 2 4 5 5 3 4 6 4 4 6 7 8 7 7 8 10 9
13 14 15 15 15 16 17 17 17 17 17 17 8 3 3 3 4 4 1 8 2 3 3 3 0 1 1 0 2 3 2 1 3 2 4 1 0 0 1 1 1 1 1 1 1 3 2 2 2 2 4 4 2 4 6 4 3 4 5 7 5 3 2 2 6 8 7 9 5 3 5 6 6 6 5 5 6 6 6 7 9 8 8 7 9 9 10
13 14 15 15 15 15 16 16 16 16 15 14 5 1 3 2 3 3 6 5 3 5 4 6 4 3 3 6 3 3 0 1 2 2 1 2 0 0 0 2 1 2 0 1 1 0 2 2 2 1 4 1 1 3 3 6 4 2 2 4 4 5 1 2 3 1 0 6 6 7 6 6 6 7 8 8 7 6 7 10 10 9 10 11 9 10 9
13 14 14 14 14 14 15 15 14 15 14 13 5 2 2 3 3 3 2 1 2 2 3 1 2 2 3 3 4 1 3 1 2 1 2 3 2 2 3 2 2 2 2 1 2 3 1 3 2 2 5 1 2 2 3 1 3 3 3 3 0 4 3 6 5 5 4 6 3 5 5 7 7 5 5 7 8 8 8 8 10 10 10 11 11 11 10
13 14 14 14 14 14 14 13 13 13 13 12 6 3 5 2 2 1 6 6 4 3 4 2 2 3 3 3 6 3 3 5 3 6 6 2 1 1 7 4 3 3 3 2 0 2 2 3 2 1 5 2 3 2 4 4 4 1 6 4 3 3 4 2 3 5 5 4 4 5 8 9 8 8 7 5 5 8 9 10 11 12 12 10 8 8 10
13 14 14 14 13 13 13 12 11 11 11 9 4 3 4 3 2 3 2 3 5 3 2 4 2 5 4 6 3 3 4 4 3 8 9 9 7 5 5 4 5 2 2 3 3 3 2 2 2 5 4 3 1 3 1 2 3 3 4 4 3 1 7 1 2 6 3 3 6 4 4 4 4 5 4 4 4 7 9 9 9 10 10 10 10 7 6
13 13 13 13 12 12 11 11 10 9 9 5 3 5 3 5 4 1 1 1 1 3 4 1 3 1 3 4 5 2 5 5 5 8 8 7 8 8 7 4 3 3 3 2 3 4 3 6 6 0 1 2 2 4 2 1 2 5 8 5 4 4 2 2 2 4 6 3 3 1 4 6 4 3 3 2 2 5 8 7 7 6 7 8 10 9 7
14 14 13 13 12 11 10 9 8 8 7 3 2 2 2 2 1 3 2 0 5 7 4 1 1 3 3 1 7 5 4 6 8 8 8 9 10 9 8 8 7 2 4 5 3 2 2 2 0 2 2 0 2 2 1 4 3 6 4 5 3 3 2 2 3 5 6 3 4 2 1 6 4 2 2 3 2 5 6 4 4 6 7 6 5 7 9
15 15 14 13 12 11 9 8 6 7 3 1 2 4 3 1 2 4 4 2 1 4 3 2 3 0 3 3 5 5 6 6 6 10 12 9 9 7 5 6 5 3 4 2 1 4 1 2 1 0 2 3 2 2 2 0 4 4 2 3 4 3 1 2 3 3 6 2 3 2 5 7 4 3 3 3 1 1 4 6 6 6 4 4 6 4 2
15 15 15 14 12 11 10 9 6 4 3 2 2 1 1 1 1 2 5 3 1 4 3 2 2 1 1 1 0 8 7 6 6 6 6 5 4 4 2 1 4 3 4 2 3 1 0 3 1 2 1 4 1 2 3 3 5 6 5 5 4 5 5 5 2 1 4 5 5 4 4 4 2 3 4 2 3 2 2 3 1 1 3 4 3 2 3
15 15 15 14 13 11 10 8 6 3 2 3 3 1 2 1 1 5 4 1 1 4 3 3 1 1 1 3 3 2 3 2 2 3 3 4 4 4 5 6 3 4 3 3 1 1 2 1 0 2 3 5 3 2 2 4 6 4 4 5 5 3 3 4 5 5 5 3 7 7 5 3 2 1 3 2 3 3 3 4 2 3 2 2 2 1 2
15 15 15 14 13 11 10 8 4 2 3 3 2 4 1 2 5 5 2 2 5 3 2 3 2 1 1 1 4 4 5 2 6 4 4 4 4 5 3 3 1 4 3 3 4 2 1 0 0 3 3 2 2 1 4 3 3 2 3 3 3 3 4 3 3 3 2 4 3 3 5 4 1 2 3 4 3 3 2 4 3 3 3 4 4 3 3
15 15 14 13 12 11 9 4 4 4 4 3 3 4 4 6 5 3 2 6 6 1 2 2 1 1 0 3 3 3 5 3 2 3 1 4 1 1 2 4 4 3 7 4 1 0 0 1 3 1 2 4 2 2 3 3 2 2 2 2 2 2 2 4 3 3 4 3 2 2 2 2 3 4 5 4 4 4 3 3 1 2 2 1 2 1 1
15 15 14 13 11 8 5 2 2 4 3 1 1 2 4 9 4 3 1 1 2 2 2 2 1 2 1 2 2 2 3 3 3 3 2 2 3 3 2 3 3 3 2 0 3 2 2 3 3 1 2 4 2 3 0 2 2 2 2 3 3 3 4 3 2 2 3 2 2 4 3 4 6 4 3 3 3 2 2 2 2 1 1 1 1 1 1
15 15 12 9 7 2 0 2 5 3 3 1 1 2 6 5 3 3 3 4 3 4 2 0 1 1 1 2 1 1 3 3 1 1 1 1 2 3 3 2 4 2 2 3 1 2 2 4 1 2 2 2 1 1 2 1 2 2 2 1 1 1 2 1 1 2 2 2 4 3 4 5 5 3 2 2 2 1 2 1 1 0 1 3 3 1 2
14 12 8 4 2 2 4 1 2 1 1 3 6 8 8 2 2 1 4 4 5 4 5 3 3 1 0 0 1 2 1 1 3 2 4 3 1 2 3 3 2 2 1 3 3 3 2 1 2 3 3 2 1 2 3 2 2 3 3 2 2 2 1 1 1 2 4 4 4 4 3 2 2 1 2 3 2 1 2 3 4 3 4 4 3 3 4
10 3 2 1 2 2 1 0 1 2 5 7 5 1 5 6 1 2 3 3 3 3 3 3 3 1 0 0 2 2 1 1 2 1 1 0 0 2 1 2 1 1 2 1 2 0 1 4 3 2 2 1 2 3 2 2 2 2 3 2 2 1 2 2 4 3 4 3 3 2 2 1 0 1 1 2 2 3 3 2 1 2 3 3 1 1 1
3 1 3 3 3 1 2 1 3 6 2 0 3 1 1 1 2 1 1 1 2 2 2 2 1 0 1 3 2 1 3 1 1 2 2 2 0 1 1 2 0 1 1 0 1 2 1 2 2 1 2 2 2 2 2 2 2 2 2 2 2 2 1 2 2 1 2 3 1 1 3 2 2 2 1 1 1 1 1 2 2 2 2 2 1 1 2
1 1 1 1 1 1 3 3 5 1 2 0 2 2 1 2 2 1 1 2 1 1 1 2 0 1 1 2 3 2 1 1 1 1 1 1 2 1 0 1 0 2 1 1 0 3 2 2 1 1 2 0 2 0 1 1 2 2 1 2 1 1 1 2 3 1 1 2 3 3 2 2 2 2 3 3 1 0 0 1 1 1 1 2 1 3 4
3 3 2 1 2 1 2 3 2 3 2 1 1 2 1 1 1 0 1 2 1 0 1 2 1 1 1 1 1 2 1 2 2 2 2 2 1 1 2 1 0 2 0 0 0 1 1 2 0 1 3 1 2 0 2 1 3 3 3 3 3 2 2 1 1 1 1 2 1 2 2 2 3 3 2 1 2 2 1 1 1 0 1 2 3 3 2
1 1 1 3 1 0 1 3 3 1 2 1 2 1 1 1 1 1 1 2 1 0 2 1 1 2 2 2 2 2 1 1 1 1 1 1 1 1 1 0 1 2 1 0 1 1 1 1 0 1 1 2 2 1 1 1 2 2 3 3 4 3 3 3 3 2 1 2 2 2 2 2 2 2 2 2 2 1 1 1 1 2 3 2 2 2 2
1 2 1 2 2 2 1 2 2 1 1 1 2 1 2 2 0 1 0 0 1 0 1 2 1 0 1 1 1 2 1 1 1 1 2 1 0 1 2 1 1 2 0 0 0 1 1 1 1 2 1 1 1 2 2 1 1 2 2 1 1 1 1 2 2 2 1 1 1 2 1 1 2 1 1 2 2 2 2 3 2 1 2 3 3 2 2
2 0 1 2 2 1 1 1 1 1 1 1 2 2 1 1 0 0 1 1 1 1 1 4 3 2 1 2 1 1 0 1 2 2 2 0 1 1 1 1 1 1 1 2 1 1 1 1 1 3 1 0 1 3 3 2 1 1 1 2 2 0 1 1 1 2 2 1 0 1 1 1 1 0 2 1 2 3 3 2 1 3 3 2 3 3 2
1 3 2 1 2 1 1 1 2 2 2 1 1 1 3 3 3 2 2 1 0 3 2 2 3 4 3 1 1 1 1 1 1 1 0 0 2 1 1 1 1 2 1 1 1 0 0 1 1 2 2 3 4 3 2 2 1 0 1 3 2 1 2 2 2 2 2 3 3 3 2 2 2 2 2 2 2 2 2 3 1 1 2 3 3 2 2
1 2 2 3 1 2 1 0 1 0 1 2 2 5 4 2 4 4 1 1 3 3 4 3 4 4 3 2 1 1 1 1 2 1 0 0 2 1 0 0 1 2 1 1 1 2 1 1 1 2 3 3 3 2 1 1 1 1 1 2 2 2 1 2 3 2 2 3 2 2 3 2 3 3 4 2 2 2 3 4 2 2 2 2 4 4 2
2 2 2 1 2 1 0 1 2 1 0 2 2 2 2 5 3 2 2 0 3 4 5 1 3 1 3 0 0 0 2 1 2 0 0 1 1 1 0 0 0 0 3 1 1 1 1 1 1 2 2 2 2 2 1 1 1 2 3 2 3 3 2 2 2 2 2 2 2 3 3 3 4 3 3 5 5 3 3 3 3 3 4 4 3 1 2
1 1 1 1 2 1 1 1 0 1 0 1 1 1 1 1 4 4 2 1 3 3 6 5 4 2 2 1 1 1 0 1 2 1 1 1 0 2 1 2 0 1 1 2 2 2 1 1 2 2 2 2 1 1 1 1 2 2 2 1 1 3 3 3 3 2 1 2 3 3 3 3 3 3 3 4 6 5 3 4 3 2 4 4 3 2 2
3 1 1 2 1 1 0 0 2 3 3 2 1 2 3 5 5 4 1 1 3 4 1 2 2 2 1 1 1 0 1 2 1 0 0 1 1 1 1 1 0 0 2 2 0 1 1 3 2 3 2 2 1 1 0 0 0 0 1 1 1 2 2 2 2 3 2 2 2 3 4 3 3 3 3 2 4 4 1 2 3 2 3 4 4 4 3
2 1 2 2 2 1 1 0 3 3 1 2 2 3 2 6 5 2 1 2 1 3 2 4 2 3 0 0 1 2 0 0 1 0 2 0 1 1 2 1 2 2 1 2 2 1 2 2 1 2 2 2 2 1 0 1 1 1 1 2 2 2 2 2 3 3 2 2 3 3 4 3 3 2 3 4 4 4 4 3 3 3 2 3 3 4 4
1 2 0 1 1 3 5 5 6 5 3 3 4 4 2 4 4 3 1 3 3 3 3 1 0 1 1 2 2 1 0 0 1 1 0 1 1 1 1 1 2 3 1 1 1 1 2 2 2 2 2 1 0 1 1 2 2 2 2 2 2 2 2 2 2 2 3 2 2 3 3 3 2 3 3 2 3 3 3 1 1 2 2 2 2 3 3
1 1 0 0 1 1 2 4 4 3 3 4 3 1 1 4 2 2 1 2 3 2 1 0 1 2 2 1 1 0 0 2 2 0 0 1 2 1 2 2 1 2 2 1 2 2 1 1 2 1 1 0 1 1 1 0 1 2 2 2 2 2 2 2 1 2 3 3 3 3 3 3 2 2 2 2 2 2 3 2 0 1 1 2 2 3 4
Wind_Direction
336 334 336 337 339 340 342 341 342 343 340 354 355 317 305 56 98 358 164 193 312 70 58 293 75 3 305 314 271 252 296 248 300 350 2 3 40 325 61 316 290 143 319 337 349 4 335 8 29 16 23 82 12 317 345 113 268 112 35 69 279 350 332 269 272 301 280 307 53 109 145 193 152 81 44 354 238 319 265 239 143 177 126 200 176 236 238
334 335 337 338 340 343 342 343 342 339 345 334 318 326 113 98 111 78 116 64 28 59 99 59 332 311 315 52 306 274 257 311 356 9 356 20 350 26 313 234 73 327 43 220 13 346 329 59 30 101 354 101 125 358 16 353 39 359 174 163 187 156 253 269 346 308 303 242 160 168 144 87 56 350 8 360 317 280 311 92 149 215 201 235 210 248 207
335 340 342 340 342 344 343 344 338 331 330 295 248 257 177 114 65 53 336 8 310 60 177 137 188 359 3 347 32 354 105 183 329 330 17 352 182 202 41 14 298 327 345 22 154 27 24 284 61 250 359 312 328 30 27 322 86 325 324 47 154 133 150 153 242 239 247 238 215 233 232 1 316 79 347 29 10 346 235 189 169 233 132 173 200 226 61
341 343 341 342 345 346 346 343 333 335 325 196 166 209 153 127 121 306 58 2 44 93 34 94 161 108 175 39 357 23 349 120 353 224 169 351 346 79 282 7 49 34 346 7 22 29 12 14 21 17 352 349 340 9 1 316 1 69 64 42 87 106 102 134 168 211 257 303 358 2 292 302 324 331 12 357 354 328 259 323 157 220 158 197 201 229 145
343 341 343 346 347 348 349 348 346 349 340 179 145 148 280 135 105 158 164 359 14 33 33 126 118 254 160 98 299 26 345 292 324 55 100 33 12 34 35 345 4 2 23 8 8 29 314 20 106 21 334 305 290 297 291 261 9 1 65 22 93 105 113 89 105 82 94 69 252 315 301 306 16 3 355 354 7 352 274 252 290 30 125 236 167 176 162
341 343 346 348 349 351 353 352 360 6 37 142 301 113 2 129 219 98 330 134 189 128 267 126 114 75 233 61 260 23 6 22 50 331 77 298 22 7 205 47 50 7 12 344 87 357 36 24 11 325 26 317 336 354 4 37 355 7 23 357 162 159 145 173 123 121 131 148 124 100 89 73 54 35 24 19 7 27 36 357 349 330 278 283 17 205 173
343 343 347 349 352 354 357 358 5 14 341 348 294 77 322 44 119 118 321 138 290 107 83 108 112 85 36 111 30 91 56 37 349 249 333 30 20 10 68 359 5 360 342 225 65 325 120 3 286 17 347 27 316 3 332 132 19 17 357 22 38 125 68 162 165 142 152 135 121 122 125 136 43 29 28 31 34 42 38 37 17 2 329 291 174 143 75
343 347 350 352 354 358 358 357 4 10 323 326 294 22 138 181 127 150 9 70 99 41 63 105 91 80 334 89 351 109 282 28 353 111 186 20 356 323 81 354 343 353 64 201 94 84 112 83 331 59 355 333 169 302 85 318 340 11 355 332 23 302 156 122 181 149 146 107 142 114 121 129 74 33 32 29 36 51 31 19 12 357 68 130 155 121 65
346 350 353 353 355 358 360 359 1 18 224 264 162 255 53 99 96 157 129 91 359 47 15 79 90 121 351 74 53 116 225 336 265 270 295 120 112 2 8 3 293 105 347 49 118 166 157 213 246 258 218 265 54 350 304 67 335 351 351 15 329 330 116 73 137 205 189 141 80 133 130 125 92 38 25 16 16 23 348 10 356 352 337 125 123 132 113
350 352 353 354 354 357 359 0 360 18 243 189 223 87 113 95 49 84 107 98 340 26 111 54 119 80 224 113 301 189 7 339 283 101 328 254 259 177 321 238 234 236 357 279 231 198 222 262 261 254 251 256 270 288 326 39 313 342 309 318 332 4 142 170 176 208 223 89 12 333 169 155 203 39 8 342 10 5 14 22 11 4 322 271 165 144 103
350 352 353 353 353 355 357 0 0 12 12 246 247 243 114 174 172 52 49 96 338 66 60 44 88 76 102 346 215 203 283 342 267 89 317 12 81 36 166 179 294 328 240 297 65 278 272 275 276 259 249 240 249 260 275 273 238 225 228 239 145 135 136 113 315 228 161 20 16 253 60 245 109 70 5 320 333 4 27 28 352 343 339 292 342 113 127
349 351 352 351 352 353 355 358 1 7 8 184 185 280 249 108 65 93 88 110 148 356 82 79 93 153 91 61 200 168 353 314 20 31 252 288 293 22 126 94 145 317 172 345 321 292 230 155 115 127 131 158 208 228 124 81 60 278 245 238 217 132 104 126 211 212 132 98 161 161 226 254 118 200 10 351 298 0 299 313 18 3 12 99 102 114 104
347 350 350 349 350 351 352 354 359 5 18 149 174 275 69 59 73 113 116 112 127 219 99 147 356 67 130 31 91 223 254 284 270 243 260 221 280 256 220 193 178 263 31 331 338 318 166 172 349 352 41 49 76 182 196 67 43 45 33 269 262 193 176 147 102 48 92 140 163 205 123 20 329 205 24 358 258 350 304 198 28 15 8 50 119 117 108
346 348 347 347 348 349 350 350 356 4 14 89 185 229 201 230 104 90 117 102 57 57 316 106 18 101 44 29 231 304 292 227 312 203 212 180 222 258 282 212 252 347 335 301 43 93 95 33 97 48 28 5 71 240 104 91 81 30 28 39 60 300 58 219 124 341 211 94 84 78 126 151 46 19 10 14 346 336 343 356 6 9 4 120 124 118 116
346 346 346 345 347 348 348 349 354 1 9 27 209 231 261 178 165 129 167 90 121 101 293 109 220 197 195 64 272 1 31 330 339 168 266 15 254 232 242 307 318 321 273 216 210 53 140 113 105 105 44 252 224 214 11 22 320 53 36 19 74 87 234 315 215 127 301 135 124 131 181 64 20 353 325 8 340 320 294 278 52 11 17 97 120 116 124
346 346 344 345 346 346 346 348 353 359 6 11 92 349 299 193 119 87 111 126 130 100 109 235 170 162 131 92 26 34 48 328 340 291 313 284 260 309 254 279 305 210 111 72 51 81 21 177 125 182 165 21 317 304 286 342 4 8 45 4 32 59 82 232 232 116 168 68 92 63 63 96 35 330 329 327 333 299 261 241 80 353 4 97 123 117 119
347 347 346 344 345 345 346 348 351 355 3 16 23 98 255 159 195 163 106 56 64 91 262 94 121 104 120 125 187 93 297 4 326 345 343 342 334 296 296 320 259 324 59 89 25 108 91 75 78 105 115 168 238 358 263 20 3 343 351 4 12 38 2 294 72 68 55 108 90 95 41 12 342 327 315 320 300 204 172 219 49 342 347 74 111 124 122
349 348 346 345 344 344 346 348 350 354 358 11 100 211 68 105 151 114 64 93 114 67 36 191 73 48 50 165 44 173 142 123 99 120 257 315 304 342 339 350 351 69 211 135 349 87 70 67 113 117 67 15 322 287 42 319 24 6 325 314 348 10 3 24 62 58 62 84 100 108 90 51 343 316 318 314 128 188 324 40 327 339 359 117 108 71 46
351 348 346 345 343 344 346 348 350 351 356 360 359 204 314 80 136 120 115 83 83 107 260 181 287 126 135 96 68 118 80 34 344 82 328 26 96 321 278 298 323 344 13 106 78 74 89 76 267 45 104 36 23 54 246 30 358 298 289 294 10 49 16 94 54 36 43 13 87 96 102 64 324 322 317 277 202 37 32 330 324 290 111 76 69 60 53
350 349 347 344 343 344 346 348 349 350 353 359 1 103 283 22 329 248 133 111 63 101 201 144 179 114 212 82 74 77 184 81 5 72 123 2 277 8 191 87 160 231 330 64 70 306 81 78 76 193 70 104 63 151 90 90 210 353 339 319 40 346 20 31 38 319 182 31 84 79 39 10 13 323 300 6 30 55 6 37 38 91 85 86 71 81 83
350 350 347 344 344 345 347 348 348 349 352 355 6 99 32 338 3 26 61 111 114 101 22 284 189 150 156 141 164 134 130 60 183 1 177 257 309 312 87 229 342 18 11 11 75 93 123 115 126 85 48 5 62 231 113 173 101 94 17 57 60 315 88 92 65 346 55 45 45 51 342 301 335 349 38 343 3 304 268 227 76 38 71 83 81 65 75
353 350 347 345 345 346 347 348 348 348 351 353 1 131 59 332 21 20 359 83 88 93 132 132 64 211 215 269 187 174 166 197 214 210 218 316 50 22 107 100 102 205 68 183 92 114 50 106 172 78 82 71 57 53 242 82 57 343 17 314 83 359 54 3 83 341 50 70 78 36 317 317 341 360 9 22 21 46 76 100 107 104 79 83 87 90 75
353 350 347 345 345 345 346 347 346 347 350 355 4 91 100 329 348 349 12 72 30 74 8 18 342 359 64 183 223 242 325 300 124 102 160 134 21 131 19 50 131 210 101 274 358 74 98 111 76 109 96 35 54 90 66 51 92 358 56 7 74 39 79 227 78 80 94 79 72 85 42 26 25 45 35 44 50 43 67 88 95 89 100 94 105 102 100
351 350 346 344 343 344 345 345 345 345 350 359 20 124 86 35 323 348 49 62 97 98 43 13 75 9 298 334 328 5 203 33 326 315 187 191 88 306 205 243 152 140 165 325 330 354 127 72 98 246 86 10 235 42 80 69 36 333 46 69 52 39 6 43 86 181 259 72 25 34 27 17 38 54 58 63 62 64 73 84 87 96 100 100 101 109 108
350 349 346 343 340 342 343 344 343 344 351 359 13 67 126 62 25 18 118 106 54 89 111 344 356 268 295 273 270 293 58 305 321 66 121 134 184 97 76 42 147 1 83 108 187 89 45 100 133 81 85 347 317 79 310 100 74 323 75 33 330 92 334 73 50 57 67 97 46 47 57 67 52 46 63 70 74 78 78 91 101 104 105 113 121 121 120
350 348 346 343 338 340 341 341 341 346 355 9 24 82 73 47 307 64 65 68 85 105 98 85 59 335 303 12 22 342 323 11 7 56 52 53 70 319 136 152 79 27 86 76 183 84 99 68 72 49 99 72 292 85 61 1 106 267 68 55 1 293 288 73 321 91 88 99 88 106 93 70 62 61 59 65 93 104 101 105 106 110 112 115 125 134 141
349 347 344 341 337 337 339 338 341 348 0 17 23 37 86 108 13 29 83 165 102 32 50 99 297 314 10 49 347 352 5 346 13 60 52 36 39 41 86 110 108 65 84 67 42 109 67 86 62 69 29 79 19 59 101 107 53 55 59 30 319 129 75 104 143 103 108 113 143 180 111 106 87 63 45 62 79 110 110 110 110 115 122 130 131 134 141
347 345 341 338 336 334 334 336 339 349 1 25 32 55 21 71 6 4 93 101 120 157 144 185 102 350 264 80 27 42 3 9 33 59 60 50 50 54 63 82 110 67 24 49 67 43 36 80 79 243 76 198 100 64 358 157 205 66 47 27 340 24 107 183 88 102 111 126 110 297 84 97 89 102 64 68 90 118 117 115 119 120 125 137 138 138 145
341 343 340 338 333 332 331 333 339 344 1 37 351 15 19 76 336 40 60 56 99 93 86 104 269 16 61 336 319 356 20 32 26 47 54 41 42 39 46 47 57 117 97 73 96 92 63 78 283 55 60 314 85 100 282 59 49 65 23 351 2 333 304 320 65 100 59 68 134 174 109 118 135 155 135 110 119 123 109 101 111 136 144 151 149 151 159
340 340 340 338 337 334 332 333 339 342 360 94 44 49 48 11 11 38 9 24 110 119 99 116 86 105 282 335 344 356 345 6 9 44 42 33 32 29 15 33 45 26 65 70 87 81 44 96 64 130 18 279 106 105 71 161 80 65 10 357 10 1 348 280 306 14 111 143 140 133 106 111 108 113 99 100 94 125 139 152 155 156 164 170 160 161 167
338 338 339 338 336 336 332 334 341 359 42 56 75 52 49 72 341 58 1 36 295 102 118 93 99 285 36 81 23 0 347 345 15 34 41 44 56 16 334 176 47 354 64 42 50 81 161 38 14 45 159 31 62 83 119 108 95 88 20 4 3 7 23 23 8 337 110 117 100 98 86 79 103 131 103 119 152 167 126 115 96 187 147 169 178 161 170
336 335 334 335 334 334 333 333 341 4 65 79 90 159 174 187 274 319 345 351 281 66 78 83 46 26 337 321 351 321 335 7 4 18 37 350 21 360 29 39 69 353 64 86 116 110 40 262 47 29 35 348 31 92 79 88 95 90 7 11 9 19 20 56 74 80 73 70 119 101 87 102 218 145 107 121 63 42 74 93 88 107 125 111 92 106 99
331 331 330 330 331 332 333 335 353 67 112 121 84 97 153 281 286 298 324 269 57 63 105 79 101 185 70 51 312 359 2 11 24 8 40 6 13 343 38 13 4 61 24 83 21 69 310 12 272 68 18 316 59 71 71 64 63 357 337 325 5 9 50 80 97 77 49 19 4 131 153 202 186 86 84 90 79 81 112 106 108 127 130 131 128 135 133
327 326 327 326 327 334 334 4 66 86 65 63 41 4 347 348 327 7 60 73 97 142 66 103 87 56 28 294 88 8 4 44 14 331 74 18 305 41 17 17 8 71 356 37 258 116 21 36 36 341 285 31 353 79 74 62 8 353 355 47 46 69 78 84 57 41 13 5 359 9 10 46 64 95 90 71 62 50 64 79 107 144 81 128 128 111 119
322 322 321 324 328 336 356 40 32 48 94 355 205 247 301 337 346 320 19 126 92 359 42 22 82 102 72 30 40 333 355 49 27 349 54 15 6 37 337 53 347 61 16 221 63 38 41 34 285 65 40 291 37 49 38 63 50 29 47 70 43 93 109 107 74 23 1 338 52 48 59 102 104 81 74 58 60 47 69 48 18 11 213 256 295 178 187
318 317 317 318 329 353 22 33 43 33 33 17 292 309 336 341 32 38 40 55 87 151 89 299 52 93 119 126 84 26 319 80 7 282 32 276 31 37 49 93 75 25 271 29 62 334 40 320 299 74 296 62 54 15 28 321 310 25 73 59 235 18 42 328 28 77 44 46 57 66 68 74 101 116 111 105 96 135 163 157 57 151 277 278 260 203 204
314 315 318 325 350 49 30 228 286 118 162 222 279 306 307 265 255 68 2 45 23 63 118 156 85 145 167 141 241 282 314 101 349 15 1 30 38 317 12 40 61 310 32 26 22 36 15 300 79 71 26 64 22 337 296 267 263 359 28 354 316 213 201 303 238 140 84 52 60 55 44 64 86 115 161 175 186 132 177 225 221 221 243 255 241 222 225
310 348 29 29 42 47 33 331 321 302 303 300 320 5 7 28 85 352 358 37 314 44 14 60 79 127 314 184 67 324 72 68 314 86 81 249 87 50 2 60 338 329 68 320 27 26 332 37 31 71 81 298 297 280 294 267 260 263 287 321 330 278 219 193 173 172 119 101 79 52 63 59 325 76 91 134 181 195 227 281 307 263 262 270 263 230 181
99 59 51 44 88 159 181 224 317 327 302 201 33 75 349 356 53 22 359 291 1 32 318 61 87 272 99 78 76 336 46 69 68 27 104 347 51 87 350 92 357 83 53 59 118 281 52 38 23 31 91 334 65 63 357 312 315 305 314 308 307 313 272 191 215 85 84 47 58 184 227 278 278 276 197 242 231 272 309 300 288 281 277 289 260 201 211
26 72 96 50 94 216 258 287 333 335 72 40 343 102 91 337 87 94 297 61 13 330 329 80 318 136 282 105 137 71 334 326 89 100 98 88 328 66 231 98 297 87 49 36 60 328 126 120 313 104 120 171 129 314 2 315 67 50 358 6 342 345 146 146 166 243 240 250 252 279 258 252 236 250 207 198 199 107 160 224 227 273 271 272 269 227 221
34 88 70 111 210 283 286 298 333 43 61 41 17 16 59 45 16 150 70 62 51 99 321 95 134 111 91 121 39 104 2 79 68 62 93 59 297 105 54 82 268 75 356 103 354 59 82 87 22 132 151 185 152 77 345 53 38 12 17 13 30 55 73 146 240 258 239 259 271 266 241 224 227 231 254 198 170 199 231 306 326 283 214 218 221 230 242
194 143 187 101 109 238 328 21 49 51 28 64 112 347 285 247 278 33 55 120 158 201 77 69 79 79 49 11 61 125 84 331 98 83 105 92 347 101 120 52 353 105 154 111 89 67 77 103 154 181 233 212 244 276 285 89 49 25 21 13 12 13 26 32 16 42 7 313 300 281 281 244 226 216 206 185 193 198 238 233 229 207 240 260 266 254 228
141 75 144 57 35 10 41 57 334 92 114 18 44 47 349 76 37 132 229 297 300 106 100 338 39 124 82 219 96 15 69 269 297 21 63 84 275 54 79 40 44 89 92 39 56 65 62 137 189 171 148 161 197 212 234 231 326 286 277 292 356 359 353 26 17 332 321 302 295 317 312 242 237 249 178 190 190 224 225 230 262 276 247 253 253 246 226
113 22 38 3 63 307 64 135 267 65 20 29 108 157 201 67 259 51 81 161 141 115 175 152 171 186 98 348 57 42 24 96 58 88 74 299 64 25 53 46 46 11 346 40 30 94 111 230 212 118 118 19 237 231 234 222 227 282 331 28 26 281 195 191 64 356 359 333 332 11 309 296 305 154 169 213 229 262 298 306 238 243 263 247 244 238 204
94 11 31 32 33 283 73 278 336 116 187 234 135 153 154 168 192 192 146 209 101 136 131 76 114 103 93 358 52 57 17 132 300 93 140 19 68 24 95 124 129 26 79 97 34 56 336 162 178 221 221 194 201 209 209 247 207 219 337 317 315 356 359 358 355 332 303 320 325 341 336 347 323 303 267 255 250 240 258 282 334 255 243 245 256 248 177
79 152 84 86 4 330 91 166 353 88 278 145 190 189 166 194 142 165 193 83 112 129 127 112 99 95 83 338 109 98 2 78 69 45 86 67 93 89 72 111 64 85 47 52 74 170 190 153 166 173 172 188 181 194 224 224 165 131 129 269 286 325 327 302 280 280 285 308 323 315 298 289 270 274 274 270 253 242 228 243 229 240 253 256 252 250 185
84 16 87 110 108 267 77 129 235 203 136 214 244 184 167 137 147 80 100 252 112 126 98 56 50 39 103 47 75 75 50 30 82 327 226 53 86 101 357 175 84 35 132 166 251 243 239 214 233 218 179 189 215 233 224 219 165 181 219 252 285 303 343 316 301 300 307 288 287 290 288 289 294 293 298 291 275 252 261 263 240 219 217 241 262 260 176
103 246 89 107 203 167 138 208 132 119 124 310 345 201 53 156 123 83 23 53 120 139 109 121 109 96 77 327 31 91 5 332 100 41 17 122 92 29 21 42 41 242 210 167 202 223 162 133 146 146 175 185 202 230 187 141 159 190 214 256 296 325 328 335 328 329 267 285 295 288 292 286 288 288 283 280 289 290 290 280 269 228 225 241 249 234 216
121 118 136 164 171 138 144 44 141 76 24 30 86 92 126 97 85 98 94 56 94 77 5 86 147 101 72 323 62 50 68 359 88 213 6 41 86 169 144 174 56 101 222 208 150 159 164 144 152 157 152 169 178 232 243 201 188 111 177 242 272 293 282 286 288 298 292 268 268 282 289 299 298 288 283 270 271 284 328 297 279 256 233 233 231 236 234
67 14 45 84 72 16 347 213 71 89 91 94 60 90 74 99 103 93 225 92 88 123 93 70 58 76 26 64 48 12 51 332 115 136 68 60 141 159 85 85 225 185 141 179 223 208 183 151 139 151 140 152 171 206 7 84 142 267 272 258 277 298 309 316 311 316 309 305 298 288 293 297 288 283 289 294 295 303 295 280 264 265 247 221 234 235 243
358 103 133 265 148 178 168 151 155 146 159 160 142 153 143 118 127 139 263 121 142 76 50 87 44 83 94 38 53 78 167 184 62 43 157 151 149 119 129 173 217 204 208 177 201 133 143 160 171 121 128 173 226 233 212 256 280 282 299 305 299 302 290 268 268 288 296 293 283 287 275 270 281 285 283 275 277 288 286 254 242 247 242 229 213 238 256
54 67 105 84 338 87 122 72 30 61 111 124 120 116 129 114 191 145 275 111 71 88 143 183 109 67 66 121 205 127 93 54 46 73 95 211 183 142 194 209 161 176 188 155 163 179 204 175 195 164 121 160 219 216 218 151 259 272 256 239 254 269 285 281 271 271 284 286 269 257 273 272 282 278 258 254 271 289 302 313 243 250 250 252 250 243 252